Miscellaneous Local Product
Issued by NWS North Platte, NE

Home | Current Version | Previous Version | Graphics & Text | Print | Product List | Glossary On
Versions: 1 2 3 4 5 6 7 8 9 10 11 12 13 14 15 16 17 18 19 20 21 22 23 24 25 26 27 28 29 30 31 32 33 34 35 36 37 38 39 40 41 42 43 44 45 46 47 48 49 50
000
AXUS43 KLBF 231610
MISLBF


WESTERN AND NORTH CENTRAL NEBRASKA HOURLY WEATHER ROUNDUP
NATIONAL WEATHER SERVICE NORTH PLATTE NE
1100 AM CDT TUE AUG 23 2016

NOTE: "FAIR" INDICATES FEW OR NO CLOUDS BELOW 12,000 FEET WITH NO
SIGNIFICANT WEATHER AND/OR OBSTRUCTIONS TO VISIBILITY.

NOTE: STATIONS NOT REPORTING VARIABLES SUCH AS SKY/WEATHER OR
PRESSURE ARE PROVIDED BY RAWS AND APRS NETWORKS AND ARE NOT UNDER
NATIONAL WEATHER SERVICE QUALITY CONTROL.

...OBSERVATIONS IN AND NEAR THE EASTERN PANHANDLE OF NEBRASKA...

CITY           SKY/WX    TMP DP  RH WIND       PRES   REMARKS
PINE RIDGE     SUNNY     76  40  27 N12G21    29.88R
CHADRON        SUNNY     76  31  19 W21G31    29.90R
ALLIANCE       SUNNY     76  43  30 NW20      29.90R
SIDNEY         SUNNY     80  37  21 NW20      29.97R
CRESCENT LAKE    N/A     77  46  32 NW12        N/A
$$

...OBSERVATIONS IN NORTHERN NEBRASKA AND FAR SOUTHERN SOUTH DAKOTA...

CITY           SKY/WX    TMP DP  RH WIND       PRES   REMARKS
WINNER         FAIR      83  65  54 S17       29.75R
VALENTINE      SUNNY     81  61  50 SW16      29.78S
THEDFORD       SUNNY     78  65  62 S13G21    29.83F
AINSWORTH      SUNNY     77  65  66 S15       29.80S
O`NEILL        MOSUNNY   77  64  65 S21       29.83F
ORD            CLOUDY    72  66  81 S9        29.83S
BROKEN BOW     CLOUDY    74  67  78 S12G23    29.83F
VALENTINE NWR    N/A     75  62  64 SW14G23     N/A
BUTTE            N/A     76  64  65 S17G26      N/A
HALSEY           N/A     77  63  62 S7          N/A
EWING            N/A     68  66  94 S6          N/A
$$

...OBSERVATIONS IN SOUTHWEST NEBRASKA AND FAR NORTHEAST COLORADO...

CITY           SKY/WX    TMP DP  RH WIND       PRES   REMARKS
WRAY           FAIR      81  46  30 N10       29.91
HOLYOKE        FAIR      84  43  23 NW14G23   29.91S
IMPERIAL       SUNNY     75  62  64 NW7       29.88R
OGALLALA       SUNNY     76  62  60 W6        29.87S
NORTH PLATTE   SUNNY     78  65  63 SW7       29.84R
MCCOOK         SUNNY     77  64  64 SW5       29.83S
LEXINGTON      MOSUNNY   77  67  71 S9G18     29.84R
STAPLETON        N/A     78  67  69 CALM        N/A
GOTHENBURG       N/A     73  62  68 S8          N/A
CALLAWAY         N/A     71  66  85 S15         N/A
$$

...OBSERVATIONS IN CENTRAL LINCOLN COUNTY AREA...

CITY           SKY/WX    TMP DP  RH WIND       PRES   REMARKS
N.P. AIRPORT   SUNNY     78  65  63 SW7       29.84R
N.P. DOWNTOWN    N/A     77  66  68 CALM        N/A
N.P. SOUTHEAST   N/A     77  65  67 CALM        N/A
N.P. HILLCREST   N/A     76  66  71 SW6         N/A
$$

...SOME OBSERVATIONS FROM AROUND THE REGION...

CITY           SKY/WX    TMP DP  RH WIND       PRES   REMARKS
DENVER         MOSUNNY   80  38  22 W7        30.05R
LARAMIE        SUNNY     70  28  21 W15G24    30.19R
CHEYENNE       SUNNY     76  20  12 NW17G31   30.07R
SCOTTSBLUFF    SUNNY     74  47  38 W8        29.96R
RAPID CITY     SUNNY     73  36  25 N32G44    29.87R
BISMARCK       MOSUNNY   75  65  70 NW17G28   29.67R
PIERRE         SUNNY     82  61  48 SW15      29.67R
SIOUX FALLS    PTSUNNY   74  67  78 S20G25    29.86S
OMAHA          CLOUDY    73  67  81 SE16      29.95S
GRAND ISLAND   CLOUDY    77  68  73 S15G23    29.86S
KANSAS CITY    PTSUNNY   78  69  73 S15       30.03F
WICHITA        PTSUNNY   81  72  74 S18G31    29.98S
OKLAHOMA CITY  TSTM      76  72  87 S15       30.08R
DALLAS         PTSUNNY   87  72  60 S23       30.12S HX  93
AMARILLO       SUNNY     81  66  60 SW18      30.08R
DODGE CITY     SUNNY     83  66  56 S21G32    29.93S
HAYS           SUNNY     84  64  51 S25G35    29.86R
GOODLAND       SUNNY     78  53  41 W7        29.90R
$$




USA.gov is the U.S. government's official web portal to all federal, state and local government web resources and services.